Regional Weather Roundup
Issued by NWS

Home | Current Version | Previous Version | Text Only | Print | Product List | Glossary On
Versions: 1 2 3 4 5 6 7 8 9 10 11 12 13 14 15 16 17 18 19 20 21 22 23 24 25 26 27 28 29 30 31 32 33 34 35 36 37 38 39 40 41 42 43 44 45 46 47 48 49 50
565
ASCA44 KEWX 231420
RWRMX

LATIN AMERICA AND CARIBBEAN REGIONAL WEATHER ROUNDUP
NATIONAL WEATHER SERVICE AUSTIN/SAN ANTONIO TX
900 AM CDT MON APR 23 2018

NOTE: "FAIR" INDICATED FEW OR NO CLOUDS BELOW 12,000 FEET WITH NO
SIGNIFICANT WEATHER AND/OR OBSTRUCTIONS TO VISIBILITY.

BAJA CALIFORNIA

CITY           SKY/WX    TMP DP  RH WIND       PRES   REMARKS
LORETO         MOSUNNY   72  54  53 N7        29.90R
LA PAZ         MOSUNNY   64  41  42 S6        29.94R
MEXICALI       SUNNY     61  45  55 SE7       29.90R
S.J. DEL CABO  PTSUNNY   70  45  40 W6        29.93R
TIJUANA        FOG       54  54 100 CALM      30.02  VSB 1

NORTHWESTERN MEXICO

CITY           SKY/WX    TMP DP  RH WIND       PRES   REMARKS
CULIACAN       PTSUNNY   72  63  73 CALM      29.90R
DURANGO        CLOUDY    57  39  51 CALM      30.26R
GUAYMAS        PTSUNNY   68  39  34 CALM      29.87
HERMOSILLO     MOSUNNY   70  32  24 CALM      29.96R
CD. JUAREZ     MOSUNNY   63  34  34 CALM      30.15
OBREGON        PTSUNNY   59  28  31 CALM      29.89R

NORTHEASTERN MEXICO

CITY           SKY/WX    TMP DP  RH WIND       PRES   REMARKS
CHIHUAHUA      SUNNY     57  28  33 CALM      30.19
MATAMOROS      PTSUNNY   72  64  78 NE10      30.08
MONCLOVA       PTSUNNY   68  50  52 SE7       30.10S
MONTERREY      DRIZZLE   66  64  94 CALM      30.09R FOG
NUEVO LAREDO   PTSUNNY   68  61  77 E6        30.11R
PIEDRAS NEGRAS MOSUNNY   66  52  59 SE7       30.13
REYNOSA        CLOUDY    70  63  78 CALM      30.08R
SALTILLO       PTSUNNY   59  54  82 NE10      30.25R
TORREON        MOSUNNY   73  54  49 CALM      30.10R
CD. VICTORIA   CLOUDY    72  72 100 CALM      30.05S

WESTERN MEXICO

CITY           SKY/WX    TMP DP  RH WIND       PRES   REMARKS
AGUASCALIENTES PTSUNNY   63  48  59 N6        30.29R
COLIMA         PTSUNNY   75  57  53 N9        30.05R
DEL BAJIO      PTSUNNY   64  52  63 NE5       30.32R
GUADALAJARA    MOSUNNY   66  41  39 CALM      30.21R
MANZANILLO     MOSUNNY   73  64  73 N7        29.92R
MAZATLAN       PTSUNNY   68  59  73 NE5       29.92R
P. VALLARTA    PTSUNNY   70  70 100 NE5       29.91R
URUAPAN        CLOUDY    66  57  72 MISG      30.20R
ZACATECAS      PTSUNNY   57  41  54 CALM      30.32R

CENTRAL MEXICO

CITY           SKY/WX    TMP DP  RH WIND       PRES   REMARKS
CUERNAVACA     PTSUNNY   66  57  72 W3        30.16
MEXICO CITY    PTSUNNY   61  50  67 E6        30.37R
MORELIA        CLOUDY    64  54  68 W6        30.26R
POZA RICA      FOG       75  75 100 NW5       30.06R VSB 3/4
PUEBLA         CLOUDY    55  50  82 N6        30.37
QUERETARO      PTSUNNY   57  50  77 CALM      30.34  HAZE
S. LUIS POTOSI PTSUNNY   61  50  67 E5        30.28R
TAMPICO        PTSUNNY   77  75  94 MISG      30.02
TOLUCA         CLOUDY    54  48  82 CALM      30.41

SOUTHERN MEXICO

CITY           SKY/WX    TMP DP  RH WIND       PRES   REMARKS
ACAPULCO       MOSUNNY   81  73  78 CALM      29.89R
B. DE HUATULCO MOSUNNY  N/A N/A N/A CALM      29.92R
OAXACA         MOSUNNY   66  52  59 N3        30.27R
P. ESCONDIDO   SUNNY     79  72  78 CALM      29.99
VERACRUZ       PTSUNNY   81  73  78 NE6       30.00
ZIHUATANEJO    CLOUDY    75  70  83 CALM      29.88

YUCATAN PENINSULA

CITY           SKY/WX    TMP DP  RH WIND       PRES   REMARKS
CAMPECHE       PTSUNNY   81  75  83 SE14      29.94R
CANCUN         MOSUNNY   84  73  70 SE12      30.01R HX  91
CHETUMAL       MOSUNNY   82  75  78 E9        29.99R
CD. DEL CARMEN PTSUNNY   81  72  74 SE18      29.96R
COZUMEL        MOSUNNY   82  73  74 SE8       30.00R
MERIDA         PTSUNNY   81  77  89 SE12      29.99R
MINATITLAN     MOSUNNY   81  77  89 CALM      29.96R
TAPACHULA      MOSUNNY   82  73  74 E6        29.92R
TUX. GUTIERREZ PTSUNNY   77  68  73 NW8       30.02R
VILLAHERMOSA   MOSUNNY   81  77  89 CALM      29.97R

CENTRAL AMERICA

CITY           SKY/WX    TMP DP  RH WIND       PRES   REMARKS
BELIZE CITY    PTSUNNY   84  75  74 E12       29.98R HX  92
MANAGUA        MOSUNNY   84  72  65 E9        29.92R

CARIBBEAN

CITY           SKY/WX    TMP DP  RH WIND       PRES   REMARKS
ARUBA          MOSUNNY   86  75  70 E20       29.92S HX  95
CURACAO        PTSUNNY   84  73  70 E15G26    29.97S HX  91
KINGSTON       MOSUNNY   84  73  70 NW3       29.97S HX  91
NASSAU         MOSUNNY   81  70  69 E10       30.10
SAN JUAN       PTSUNNY   81  73  78 E10       30.05R
SANTO DOMINGO  MOSUNNY   82  72  69 N7        30.03R
ST. CROIX      MOSUNNY   84  73  70 E15       30.06  HX  91
ST. KITTS      PTSUNNY   79  73  83 E13       30.06R
ST. MAARTEN    MOSUNNY   81  72  74 E14       30.06R
ST. THOMAS     LGT RAIN  84  73  70 E14       30.05  HX  91

$$





USA.gov is the U.S. government's official web portal to all federal, state and local government web resources and services.